This demonstration page uses our WeatherBlox Daily Observations layout. Learn more.

Left ArrowRight Arrow

34.16533, -84.80231

Hourly Observations for August 6, 2022

Temp ( °F °C ) Dew Point ( °F °C ) Humidity (%) Winds ( mph kmh ) Pressure ( in mb ) Visibility ( mi km ) Precip ( " mm )
12:15 am 00:15 Mostly Clear 73 23 72 22 94 94 Calm 30.17 1022 10 16 0.00 0.00
12:35 am 00:35 Partly Cloudy 72 22 72 22 100 100 Calm 30.18 1022 10 16 0.00 0.00
12:55 am 00:55 Cloudy 73 23 72 22 94 94 Calm 30.17 1022 10 16 0.00 0.00
1:15 am 01:15 Cloudy 73 23 72 22 94 94 Calm 30.17 1022 10 16 0.00 0.00
1:35 am 01:35 Cloudy with Light Rain 73 23 72 22 94 94 Calm 30.17 1022 6 10 0.00 0.00
1:55 am 01:55 Mostly Cloudy 73 23 72 22 94 94 Calm 30.16 1021 10 16 0.01 0.25
2:15 am 02:15 Mostly Cloudy with Nearby Thunderstorms 73 23 72 22 94 94 Calm 30.16 1021 10 16 0.00 0.00
2:35 am 02:35 Mostly Cloudy with Nearby Thunderstorms 73 23 72 22 94 94 Calm 30.16 1021 10 16 0.00 0.00
2:55 am 02:55 Mostly Cloudy with Nearby Thunderstorms 73 23 72 22 94 94 Calm 30.16 1021 10 16 0.00 0.00
3:15 am 03:15 Partly Cloudy with Nearby Thunderstorms 73 23 72 22 94 94 Calm 30.16 1021 10 16 0.00 0.00
3:35 am 03:35 Mostly Cloudy 73 23 72 22 94 94 Calm 30.16 1021 9 14 0.00 0.00
3:55 am 03:55 Cloudy 73 23 72 22 94 94 Calm 30.16 1021 8 13 0.00 0.00
4:15 am 04:15 Mostly Cloudy 73 23 72 22 94 94 Calm 30.16 1021 9 14 0.00 0.00
4:35 am 04:35 Mostly Clear 73 23 72 22 94 94 Calm 30.16 1021 9 14 0.00 0.00
4:55 am 04:55 Clear 72 22 72 22 100 100 Calm 30.18 1022 8 13 0.00 0.00
5:15 am 05:15 Clear 72 22 72 22 100 100 Calm 30.18 1022 7 11 0.00 0.00
5:35 am 05:35 Clear 72 22 72 22 100 100 Calm 30.19 1022 8 13 0.00 0.00
5:55 am 05:55 Clear 72 22 72 22 100 100 Calm 30.19 1022 9 14 0.00 0.00
6:15 am 06:15 Clear 72 22 72 22 100 100 Calm 30.19 1022 10 16 0.00 0.00
6:35 am 06:35 Clear 72 22 72 22 100 100 Calm 30.19 1022 10 16 0.00 0.00
6:55 am 06:55 Sunny 72 22 72 22 100 100 Calm 30.20 1023 9 14 0.00 0.00
7:15 am 07:15 Sunny 72 22 72 22 100 100 Calm 30.21 1023 9 14 0.00 0.00
7:35 am 07:35 Sunny 73 23 72 22 94 94 Calm 30.20 1023 10 16 0.00 0.00
7:55 am 07:55 Sunny 73 23 72 22 94 94 Calm 30.21 1023 10 16 0.00 0.00
8:15 am 08:15 Sunny 75 24 73 23 94 94 ESE 5 7 30.21 1023 10 16 0.00 0.00
8:35 am 08:35 Sunny 75 24 73 23 94 94 ESE 6 9 30.21 1023 10 16 0.00 0.00
8:55 am 08:55 Mostly Sunny 77 25 73 23 89 89 E 5 7 30.22 1023 10 16 0.00 0.00
9:15 am 09:15 Mostly Sunny 77 25 73 23 89 89 E 5 7 30.22 1023 10 16 0.00 0.00
9:35 am 09:35 Partly Cloudy 79 26 73 23 84 84 ESE 7 11 30.23 1024 10 16 0.00 0.00
9:55 am 09:55 Mostly Cloudy 81 27 73 23 79 79 VRB 6 9 30.22 1024 10 16 0.00 0.00
10:15 am 10:15 Cloudy 79 26 73 23 84 84 E 7 11 30.24 1024 10 16 0.00 0.00
10:35 am 10:35 Cloudy 79 26 73 23 84 84 VRB 3 6 30.24 1024 10 16 0.00 0.00
10:55 am 10:55 Mostly Cloudy 81 27 75 24 84 84 VRB 5 7 30.23 1024 10 16 0.00 0.00
11:15 am 11:15 Mostly Sunny 82 28 73 23 74 74 ESE 6 9 30.23 1024 10 16 0.00 0.00
11:35 am 11:35 Partly Cloudy 82 28 73 23 74 74 E 6 9 30.24 1024 10 16 0.00 0.00
11:55 am 11:55 Partly Cloudy 84 29 75 24 74 74 VRB 5 7 30.24 1024 10 16 0.00 0.00
12:15 pm 12:15 Mostly Sunny 84 29 75 24 74 74 VRB 5 7 30.23 1024 10 16 0.00 0.00
12:35 pm 12:35 Mostly Sunny 86 30 75 24 70 70 E 6 9 30.23 1024 10 16 0.00 0.00
12:55 pm 12:55 Sunny 86 30 75 24 70 70 E 6 9 30.22 1023 10 16 0.00 0.00
1:15 pm 13:15 Sunny 86 30 75 24 70 70 VRB 5 7 30.21 1023 10 16 0.00 0.00
1:35 pm 13:35 Mostly Sunny 86 30 75 24 70 70 E 5 7 30.20 1023 10 16 0.00 0.00
1:55 pm 13:55 Mostly Sunny 86 30 75 24 70 70 ENE 6 9 30.19 1022 10 16 0.00 0.00
2:15 pm 14:15 Mostly Sunny 86 30 77 25 75 75 E 5 7 30.18 1022 10 16 0.00 0.00
2:35 pm 14:35 Partly Cloudy 86 30 75 24 70 70 VRB 6 9 30.17 1022 10 16 0.00 0.00
2:55 pm 14:55 Mostly Sunny 88 31 73 23 62 62 E 6 9 30.14 1021 10 16 0.00 0.00
3:15 pm 15:15 Mostly Sunny 90 32 75 24 63 63 E 6 9 30.13 1020 10 16 0.00 0.00
3:35 pm 15:35 Sunny 90 32 75 24 63 63 E 7 11 30.13 1020 10 16 0.00 0.00
3:55 pm 15:55 Sunny 91 33 72 22 52 52 Calm 30.13 1020 10 16 0.00 0.00
4:15 pm 16:15 Sunny 91 33 72 22 52 52 Calm 30.12 1020 10 16 0.00 0.00
4:35 pm 16:35 Mostly Sunny 90 32 72 22 55 55 Calm 30.11 1020 10 16 0.00 0.00
4:55 pm 16:55 Sunny 90 32 72 22 55 55 Calm 30.11 1020 10 16 0.00 0.00
5:15 pm 17:15 Sunny 91 33 68 20 46 46 Calm 30.10 1019 9 14 0.00 0.00
5:35 pm 17:35 Sunny 91 33 72 22 52 52 SSE 6 9 30.10 1019 10 16 0.00 0.00
5:55 pm 17:55 Sunny 91 33 72 22 52 52 Calm 30.10 1019 10 16 0.00 0.00
6:15 pm 18:15 Sunny 90 32 72 22 55 55 S 5 7 30.11 1020 10 16 0.00 0.00
6:35 pm 18:35 Sunny with Nearby Thunderstorms 90 32 73 23 59 59 SSW 5 7 30.11 1020 10 16 0.00 0.00
6:55 pm 18:55 Sunny 90 32 73 23 59 59 SSW 6 9 30.11 1020 10 16 0.00 0.00
7:15 pm 19:15 Sunny 88 31 73 23 62 62 SSW 5 7 30.12 1020 10 16 0.00 0.00
7:35 pm 19:35 Sunny 86 30 75 24 70 70 VRB 5 7 30.13 1020 10 16 0.00 0.00
7:55 pm 19:55 Sunny 86 30 75 24 70 70 Calm 30.15 1021 10 16 0.00 0.00
8:15 pm 20:15 Sunny 84 29 75 24 74 74 Calm 30.15 1021 10 16 0.00 0.00
8:35 pm 20:35 Sunny 84 29 75 24 74 74 Calm 30.15 1021 10 16 0.00 0.00
8:55 pm 20:55 Clear 82 28 77 25 84 84 Calm 30.16 1021 10 16 0.00 0.00
9:15 pm 21:15 Clear 81 27 75 24 84 84 Calm 30.16 1021 10 16 0.00 0.00
9:35 pm 21:35 Partly Cloudy 79 26 75 24 89 89 ESE 7 11 30.19 1022 10 16 0.00 0.00
9:55 pm 21:55 Cloudy 81 27 73 23 79 79 E 6 9 30.19 1022 10 16 0.00 0.00
10:15 pm 22:15 Cloudy 81 27 72 22 74 74 NE 9 15 30.22 1024 10 16 0.00 0.00
10:35 pm 22:35 Cloudy 79 26 70 21 74 74 VRB 7 11 30.23 1024 10 16 0.00 0.00
10:55 pm 22:55 Mostly Cloudy 79 26 70 21 74 74 E 10 17 30.22 1023 10 16 0.00 0.00
11:15 pm 23:15 Mostly Cloudy 77 25 70 21 79 79 ESE 7 11 30.23 1024 10 16 0.00 0.00
11:35 pm 23:35 Cloudy 77 25 70 21 79 79 E 7 11 30.23 1024 10 16 0.00 0.00
11:55 pm 23:55 Mostly Cloudy 77 25 70 21 79 79 ESE 6 9 30.23 1024 10 16 0.00 0.00

Powered by AerisWeather